Starlink 11712

operational
NORAD ID: 64135 Int'l Des: 2025-111 Owner: SPXS Country: US Constellation: starlink
LEOCIRCULAR

About Starlink 11712

Description loading...

Live Position

Loading 3D Globe...

Upcoming Passes

Altitude History

Altitude vs Time

uPlot chart will show altitude changes over time

Two-Line Element Set

1 64135U 25111N 25260.48253039 .00193731 00000-0 14758-2 0 9999
2 64135 42.9998 298.2849 0001777 274.8790 85.1875 15.70880350 19396
Epoch: Sep 17, 2025 • Age: 37 hours

Current Status

Altitude 358.9 km
Velocity 7.70 km/s
Sub-Earth Point 43.15°N, 13.7°E
Launch Date May 24, 2025
Age 0.3 years
Type internet

Technical Details

Classification Payload
Mass 960.00 kg
Dry Mass 910.00 kg
Total Mass 960.00 kg
Length 0.30 m
Diameter 4.10 m
Span 29.00 m
Shape Box + pan
Manufacturer SPXS
Bus Type Starlink V2MD
Phase Status In Orbit
Owner/State SPXS/US

Large Constellations

Loading constellations...